Find Kosmos-2541

NORAD ID: 44552 Int'l Des: 2019-065 Owner: VVKOV Country: RU operational
MEOELLIPTICALHEO_ELLIPTICALSEMI_SYNCMOLNIYA

实时位置

正在加载3D地球...

关于 Kosmos-2541

正在加载描述...

即将过境

Passes for default location (London). Set your location on the main map for personalized predictions.

高度历史

Loading altitude history...

两行轨道根数

1 44552U 19065A 26105.96412215 .00000143 00000-0 00000-0 0 9993
2 44552 62.7088 162.7394 6483505 272.1668 20.4191 2.00621198 47971
Epoch: Apr 15, 2026 • Age: 20 hours

当前状态

高度 30559.3 km
速度 2.56 km/s
星下点 51.69°N, 169.8°E
发射日期 Sep 26, 2019
运行时间 6.5 years
类型 other

技术详情

分类 Payload
质量 2550.00 kg
干质量 2000.00 kg
总质量 2550.00 kg
长度 4.00 m
直径 2.00 m
跨度 10.00 m
形状 Box + 2 Pan
制造商 RKKE/KOMET
平台类型 14F142 EKS
阶段状态 In Orbit
所有者/国家 VVKOV/RU

Most Searched